CZ-6A DEB

Satellite information

Favourite Embed

Satellite Type and Status

DEBRISIN ORBIT

Key statistics

Satellite CZ-6A DEB at a glance.

Uptime

1129

Days in orbit

Revolutions

≈ 14.2

Per day

Orbit

SSO

Sun Synchronous Orbit

Inclination

98.8

Latest

Satellite identification and parameters

Extended collection of information and parameters for CZ-6A DEB.

Object identification

Identified? True

Debris? True

Object name: CZ-6A DEB

International designator: 2022-151AHS

Object number (NORAD): 57575

Object ID (CCSDS): 57575

Country: PEOPLES REPUBLIC OF CHINA (PRC)

Current information (Y/N): Y

RCS size: SMALL

Orbital parameters

Period: 101.397 minutes

Inclination: 98.8088 deg

SMA: 7202.93 km

Apoapsis: 857.335 km

Periapsis: 792.255 km

RAAN: 346.3418 deg

Eccentricy: 0.00451764

Argument of periapsis: 119.7574 deg

Mean anomaly: 240.8108 deg

Mean motion: 14.20165564 rev/day

Mean motion (dot): 0.0000642 rev/day2

B* drag term: 0.0029965483 1/REarth

Two-line elements (TLE)

Creation date: Dec. 10, 2025, 7:58 p.m.

Reference frame: TEME

Reference center: EARTH

Epoch: Dec. 10, 2025, 10:36 a.m. UTC

TLE line 0: 0 CZ-6A DEB

TLE line 1: 1 57575U 22151AHS 25344.44213164 .00006420 00000-0 29965-2 0 9998

TLE line 2: 2 57575 98.8088 346.3418 0045176 119.7574 240.8108 14.20165564144453

Live tracking on map

Real-time ground track for satellite CZ-6A DEB.

In-orbit conjunctions

A list of the most updated potential collisions computed for object CZ-6A DEB.

Target Orbit TCA Probability of collision Miss distance Type
FENGYUN 1C DEB SSO 2025-08-01 02:21:41 0.0002850527 150.0 (m) DEBRIS
CZ-6A DEB SSO 2024-09-24 23:48:13 0.0001210695 941.0 (m) DEBRIS
SL-3 R/B LEO 2024-09-20 19:35:02 0.000182192 242.0 (m) ROCKET BODY

Associated space launch

Chinese satellite reported for atmospheric/ocean/environmental/spatial parameter research purposes, details TBD.

CZ-6A DEB was lifted into orbit during the mission ‘Long March 6A | Yunhai 3’, on board a Long March 6A space rocket.

The launch took place on Nov. 11, 2022, 10:52 p.m. from Launch Complex 9A.

For more information about the launch, click the button.

Launch to space Long March 6A | Yunhai 3
Long March 6A | Yunhai 3

Agency: N/A

Status: Launch Successful

Launch date: Nov. 11, 2022, 10:52 p.m. UTC

Rocket: Long March 6A

Launch pad: Launch Complex 9A

Location: Taiyuan Satellite Launch Center, People's Republic of China

...

Latest news about this satellite

There are no fresh news available about this satellite. Check back as we update our databases every day.


Newsletter sign-up

Weekly statistics, charts and insights to help you stay on top of the space industry.